Station YGNN6 - Niagara Coast Guard Station, NY Image indicating link to RSS feed of recent meteorological observations for station YGNN6


Conditions at YGNN6 as of
(11:00 pm EDT on 07/22/2024)
0300 GMT on 07/23/2024:
     

Click on the graph icon in the table below to see a time series plot of the last five days of that observation.

5-day plot - Wind Direction Wind Direction (WDIR): NW ( 320 deg true )
5-day plot - Wind Speed Wind Speed (WSPD): 1.0 kts
5-day plot - Wind Gust Wind Gust (GST): 1.9 kts
5-day plot - Atmospheric Pressure Atmospheric Pressure (PRES):29.97 in
5-day plot - Pressure Tendency Pressure Tendency (PTDY):+0.02 in ( Rising )
5-day plot - Air Temperature Air Temperature (ATMP): 74.8 °F
5-day plot - Wind Speed at 10 Meters Wind Speed at 10 meters (WSPD10M): 1.9 kts
5-day plot - Wind Speed at 20 Meters Wind Speed at 20 meters (WSPD20M): 1.9 kts
5-day plot -  Wind Speed, Wind Gust and Atmospheric Pressure Combined plot of Wind Speed, Gust, and Air Pressure
Previous observations
TIME
(EDT)
5-day plot - Wind Direction
WDIR
 
5-day plot - Wind Speed
WSPD
kts
5-day plot - Wind Gust
GST
kts
5-day plot - Wave Height
WVHT
ft
5-day plot - Dominant Wave Period
DPD
sec
5-day plot - Average Wave Period
APD
sec
5-day plot - Mean Wave Direction
MWD
 
5-day plot - Atmospheric Pressure
PRES
in
5-day plot - Pressure Tendency
PTDY
in
5-day plot - Air Temperature
ATMP
°F
5-day plot - Water Temperature
WTMP
°F
5-day plot - Dew Point
DEWP
°F
5-day plot - Salinity
SAL
psu
5-day plot - Visibility
VIS
nmi
5-day plot - Tide (above MLLW)
TIDE
ft
2024-07-22 10:50 pm- 0.0 1.9----29.97- 74.8-----
2024-07-22 10:40 pm N 1.0 2.9----29.97- 75.0-----
2024-07-22 10:30 pmNNW 1.9 2.9----29.96- 74.5-----
2024-07-22 10:20 pm- 0.0 1.0----29.96- 73.8-----
2024-07-22 10:10 pm- 0.0 1.0----29.97- 73.9-----
2024-07-22 10:00 pm- 0.0 1.0----29.97+0.02 73.9-----
2024-07-22 09:50 pm- 0.0 1.9----29.96- 74.3-----
2024-07-22 09:40 pmSSE 1.0 1.9----29.96- 74.3-----
2024-07-22 09:30 pm SE 1.9 1.9----29.96- 74.5-----
2024-07-22 09:10 pm- 0.0 1.0----29.96- 75.0-----
2024-07-22 09:00 pm NE 1.0 1.9----29.95+0.00 75.2-----
2024-07-22 08:50 pm- 0.0 1.9----29.95- 75.4-----
2024-07-22 08:40 pmNNE 1.0 1.9----29.95- 75.2-----
2024-07-22 08:30 pm- 0.0 1.9----29.95- 75.4-----
2024-07-22 08:20 pm- 0.0 1.9----29.95- 75.4-----
2024-07-22 08:10 pm- 0.0 1.0----29.95- 75.4-----
2024-07-22 08:00 pm- 0.0 1.9----29.95-0.02 75.4-----
2024-07-22 07:50 pm- 0.0 1.9----29.95- 75.6-----
2024-07-22 07:40 pmESE 1.9 1.9----29.95- 75.7-----
2024-07-22 07:30 pm- 0.0 1.9----29.95- 75.9-----
2024-07-22 07:20 pmESE 1.0 1.9----29.95- 76.3-----
2024-07-22 07:10 pm- 0.0 1.9----29.95- 76.3-----
2024-07-22 07:00 pm- 0.0 1.9----29.95- 76.3-----
2024-07-22 06:50 pm SE 1.9 4.1----29.95- 76.3-----
2024-07-22 06:40 pmESE 2.9 4.1----29.95- 76.5-----
2024-07-22 06:30 pm- 0.0 2.9----29.95- 76.6-----
2024-07-22 06:20 pm- 0.0 5.1----29.95- 76.5-----
2024-07-22 06:10 pm E 1.9 4.1----29.95- 76.8-----
2024-07-22 06:00 pm- 0.0 4.1----29.95-0.04 77.0-----
2024-07-22 05:50 pm E 2.9 5.1----29.95- 76.1-----
2024-07-22 05:40 pm NE 2.9 5.1----29.96- 76.8-----
2024-07-22 05:30 pmNNE 1.0 4.1----29.96- 77.0-----
2024-07-22 05:20 pm NE 1.9 4.1----29.96- 77.4-----
2024-07-22 05:10 pmENE 1.0 5.1----29.96- 77.7-----
2024-07-22 05:00 pm NE 1.9 4.1----29.97-0.03 77.4-----
2024-07-22 04:50 pm N 2.9 6.0----29.97- 76.8-----
2024-07-22 04:40 pmNNE 2.9 6.0----29.97- 77.2-----
2024-07-22 04:30 pm N 2.9 6.0----29.97- 76.8-----
2024-07-22 04:20 pm N 1.9 5.1----29.98- 77.2-----
2024-07-22 04:10 pm N 2.9 6.0----29.98- 75.7-----
2024-07-22 03:50 pm N 5.1 6.0----29.98- 75.4-----
2024-07-22 03:40 pm N 5.1 7.0----29.98- 74.8-----
2024-07-22 03:30 pm N 5.1 6.0----29.99- 75.0-----
2024-07-22 03:20 pm N 5.1 7.0----29.99- 74.7-----
2024-07-22 03:10 pm N 5.1 7.0----29.99- 74.7-----
2024-07-22 03:00 pm N 5.1 7.0----29.99-0.04 73.9-----
2024-07-22 02:50 pm N 5.1 7.0----29.99- 74.7-----
2024-07-22 02:40 pm N 5.1 6.0----30.00- 74.5-----
2024-07-22 02:30 pm N 4.1 7.0----30.00- 74.7-----
2024-07-22 02:20 pm N 4.1 6.0----30.00- 74.8-----
2024-07-22 02:10 pm N 4.1 6.0----30.00- 75.4-----
2024-07-22 02:00 pm N 4.1 5.1----30.00-0.04 74.7-----
2024-07-22 01:50 pm N 4.1 6.0----30.00- 74.1-----
2024-07-22 01:40 pm N 1.9 7.0----30.00- 74.5-----
2024-07-22 01:30 pm N 5.1 8.0----30.00- 73.9-----
2024-07-22 01:20 pm N 5.1 8.0----30.01- 73.8-----
2024-07-22 01:10 pmNNW 6.0 7.0----30.01- 73.8-----
2024-07-22 01:00 pm N 5.1 7.0----30.01-0.03 73.8-----
2024-07-22 12:50 pm N 5.1 7.0----30.01- 73.9-----
2024-07-22 12:40 pm N 5.1 7.0----30.02- 74.1-----
2024-07-22 12:30 pm N 4.1 7.0----30.02- 73.9-----
2024-07-22 12:20 pm N 6.0 7.0----30.02- 73.8-----
2024-07-22 12:10 pm N 6.0 7.0----30.03- 73.8-----
2024-07-22 12:00 pm N 5.1 6.0----30.03-0.01 73.9-----
2024-07-22 11:50 am N 4.1 6.0----30.03- 74.1-----
2024-07-22 11:40 am N 4.1 6.0----30.03- 73.8-----
2024-07-22 11:30 am N 5.1 7.0----30.04- 73.6-----
2024-07-22 11:20 am N 5.1 7.0----30.04- 73.8-----
2024-07-22 11:10 am N 5.1 7.0----30.04- 73.6-----
2024-07-22 11:00 am N 5.1 7.0----30.04+0.00 73.8-----
2024-07-22 10:50 am N 5.1 6.0----30.04- 73.8-----
2024-07-22 10:30 am N 4.1 7.0----30.04- 73.8-----
2024-07-22 10:20 am N 2.9 6.0----30.04- 74.1-----
2024-07-22 10:10 amNNW 2.9 6.0----30.04- 73.6-----
2024-07-22 10:00 amNNW 4.1 6.0----30.04+0.00 73.2-----
2024-07-22 09:50 am NW 4.1 6.0----30.04- 72.9-----
2024-07-22 09:40 amNNW 4.1 5.1----30.04- 73.2-----
2024-07-22 09:30 am NW 2.9 5.1----30.04- 73.0-----
2024-07-22 09:20 amWNW 2.9 2.9----30.04- 73.6-----
2024-07-22 09:10 am W 1.9 2.9----30.04- 73.6-----
2024-07-22 09:00 am NW 1.0 1.9----30.04+0.01 74.7-----
2024-07-22 08:50 am- 0.0 1.9----30.04- 74.5-----
2024-07-22 08:40 am SE 1.9 2.9----30.04- 72.5-----
2024-07-22 08:30 am SE 2.9 4.1----30.04- 72.0-----
2024-07-22 08:20 amSSE 1.9 2.9----30.04- 71.4-----
2024-07-22 08:10 am- 0.0 1.9----30.04- 70.9-----
2024-07-22 08:00 am- 0.0 1.9----30.04+0.00 70.5-----
2024-07-22 07:50 am S 1.9 2.9----30.04- 70.2-----
2024-07-22 07:40 am SE 1.9 2.9----30.04- 70.0-----
2024-07-22 07:30 am SE 2.9 2.9----30.04- 69.6-----
2024-07-22 07:20 am SE 1.9 2.9----30.04- 69.4-----
2024-07-22 07:10 am SE 2.9 2.9----30.04- 69.1-----
2024-07-22 07:00 am SE 1.9 2.9----30.04+0.00 69.3-----
2024-07-22 06:50 am- 0.0 1.9----30.04- 69.1-----
2024-07-22 06:40 amESE 1.0 2.9----30.03- 69.1-----
2024-07-22 06:30 amSSE 2.9 2.9----30.03- 68.9-----
2024-07-22 06:20 am SE 1.9 2.9----30.03- 68.9-----
2024-07-22 06:10 amSSE 1.9 1.9----30.03- 68.7-----
2024-07-22 06:00 am SE 1.0 1.9----30.03-0.02 68.7-----
2024-07-22 05:50 am SE 1.9 1.9----30.03- 68.5-----
2024-07-22 05:40 amSSE 1.0 1.9----30.03- 68.7-----
2024-07-22 05:30 am S 1.0 2.9----30.03- 68.5-----
2024-07-22 05:10 am SE 2.9 4.1----30.04- 68.9-----
2024-07-22 05:00 am SE 1.9 2.9----30.04-0.02 69.1-----
2024-07-22 04:50 amSSE 1.9 2.9----30.04- 69.3-----
2024-07-22 04:40 amSSE 2.9 4.1----30.03- 69.4-----
2024-07-22 04:30 am SE 2.9 4.1----30.04- 69.4-----
2024-07-22 04:20 am SE 2.9 4.1----30.04- 69.6-----
2024-07-22 04:10 am SE 1.9 4.1----30.04- 69.3-----
2024-07-22 04:00 am- 0.0 4.1----30.04-0.02 69.3-----
2024-07-22 03:50 am SE 2.9 2.9----30.04- 69.3-----
2024-07-22 03:40 am SE 2.9 4.1----30.04- 69.4-----
2024-07-22 03:30 am SE 2.9 4.1----30.04- 70.0-----
2024-07-22 03:20 amSSE 1.9 2.9----30.04- 69.8-----
2024-07-22 03:10 am SE 2.9 2.9----30.05- 69.8-----
2024-07-22 03:00 am SE 2.9 2.9----30.05- 70.2-----
2024-07-22 02:50 amSSE 1.9 2.9----30.05- 70.5-----
2024-07-22 02:40 amSSE 1.9 2.9----30.05- 70.3-----
2024-07-22 02:30 am SE 1.9 2.9----30.05- 70.3-----
2024-07-22 02:20 am SE 2.9 4.1----30.06- 70.5-----
2024-07-22 02:10 am SE 2.9 4.1----30.06- 70.5-----
2024-07-22 02:00 amSSE 2.9 4.1----30.06+0.01 70.7-----
2024-07-22 01:50 amESE 2.9 4.1----30.06- 70.3-----
2024-07-22 01:40 am SE 1.9 5.1----30.06- 70.5-----
2024-07-22 01:30 amSSE 2.9 4.1----30.07- 70.9-----
2024-07-22 01:20 amSSE 4.1 4.1----30.07- 71.1-----
2024-07-22 01:10 am SE 2.9 4.1----30.06- 71.1-----
2024-07-22 01:00 am SE 4.1 4.1----30.06+0.00 71.1-----
2024-07-22 12:50 amESE 1.9 5.1----30.07- 71.1-----
2024-07-22 12:40 am SE 4.1 4.1----30.07- 71.2-----
2024-07-22 12:30 amSSE 1.9 1.9----30.07- 71.2-----
2024-07-22 12:20 am S 1.9 2.9----30.07- 71.2-----
2024-07-22 12:10 am SE 2.9 4.1----30.07- 71.4-----
2024-07-21 11:50 pm SE 4.1 5.1----30.06- 71.2-----
2024-07-21 11:40 pm SE 4.1 5.1----30.06- 71.4-----
2024-07-21 11:30 pm SE 4.1 5.1----30.06- 71.8-----
2024-07-21 11:20 pmSSE 4.1 4.1----30.06- 72.0-----
2024-07-21 11:10 pm SE 4.1 4.1----30.06- 72.0-----
2024-07-21 11:00 pmESE 2.9 4.1----30.05+0.01 72.0-----
2024-07-21 10:50 pm SE 4.1 4.1----30.06- 72.3-----